Location: Argonnex
(45.9500°N, 6.1333°E)
Time: 20:01:28
(UTC+00:00)

NOAA 16 DEB - Visible Passes

Search period start: 26 February 2024 00:00
Search period end: 07 March 2024 00:00
Orbit: 844 x 868 km, 98.6° (Epoch: 26 February)

Date Brightness Start Highest point End Pass type
(mag) Time Alt. Az. Time Alt. Az. Time Alt. Az.
26 Feb ? 05:28:28 10° ENE 05:30:09 11° E 05:31:50 10° ESE visible
26 Feb ? 18:36:19 10° S 18:41:37 49° W 18:46:58 10° NNW visible
27 Feb ? 18:25:58 10° S 18:31:23 60° W 18:36:51 10° NNW visible
28 Feb ? 18:15:42 10° S 18:21:10 72° WSW 18:26:42 10° NNW visible
29 Feb ? 18:05:28 10° SSE 18:10:57 87° WSW 18:16:31 10° NNW visible
29 Feb ? 19:50:17 10° WSW 19:52:36 13° W 19:54:56 10° WNW visible
01 Mar ? 17:55:17 10° SSE 18:00:46 79° ENE 18:06:19 10° NNW visible
01 Mar ? 19:39:02 10° SW 19:42:15 16° W 19:45:29 10° NW visible
02 Mar ? 17:45:09 10° SSE 17:50:35 66° ENE 17:56:04 10° N visible
02 Mar ? 19:28:04 10° SW 19:31:54 19° W 19:35:47 10° NW visible
03 Mar ? 19:17:17 10° SW 19:21:34 23° W 19:25:55 10° NW visible
04 Mar ? 19:06:36 10° SSW 19:11:16 28° W 19:15:59 10° NW visible
05 Mar ? 18:56:02 10° SSW 19:00:58 34° W 19:05:58 10° NNW visible
06 Mar ? 18:45:32 10° SSW 18:50:41 41° W 18:55:55 10° NNW visible
